Weather History for K96D - December, 2013

Change the Weather History Date:

Tuesday, December 3, 2013

  Actual Average (KGAF) Record (KGAF)
Temperature  
Mean Temperature 14 °F -  
Max Temperature 17 °F 24 °F 52 °F (1967)
Min Temperature 12 °F 7 °F -25 °F (1964)
Degree Days  
Heating Degree Days 50    
Moisture  
Dew Point 15 °F    
Average Humidity 100    
Maximum Humidity 100    
Minimum Humidity 100    
Precipitation  
Precipitation 0.51 in - - ()
Sea Level Pressure  
Sea Level Pressure 29.99 in    
Wind  
Wind Speed 14 mph (North)    
Max Wind Speed 20 mph    
Max Gust Speed 25 mph    
Visibility 4 miles    
Events Rain , Snow    
Averages and records for this station are not official NWS values.
T = Trace of Precipitation, MM = Missing Value Source: NWS Daily Summary

Daily Weather History Graph

Daily Weather History Graph

Search for Another Location

Airport or City:

Trip Planner

Search our weather history database for the weather conditions in past years. The results will help you decide how hot, cold, wet, or windy it might be!

Date:

Astronomy

Dec. 03, 2013 Rise Set
Actual Time 8:06 AM CST 4:35 PM CST
Civil Twilight 7:30 AM CST 5:12 PM CST
Nautical Twilight 6:50 AM CST 5:52 PM CST
Astronomical Twilight 6:12 AM CST 6:30 PM CST
Moon 8:35 AM CST (12/3) 5:43 PM CST (12/3)
Length of Visible Light 9h 42m
Length of Day
8h 29m
New Moon, 1% of the Moon is Illuminated
Dec 3
New Moon
Dec 9
First Quarter
Dec 17
Full
Dec 25
Last Quarter
Jan 1
New

Hourly Weather History & Observations

Time (CST) Temp. Windchill Dew Point Humidity Pressure Visibility Wind Dir Wind Speed Gust Speed Precip Events Conditions
12:15 AM 17.6 °F 5.7 °F 17.6 °F 100% 29.91 in 10.0 mi North 10.4 mph - N/A   Overcast
12:35 AM 17.6 °F 4.3 °F 17.6 °F 100% 29.91 in 10.0 mi North 12.7 mph - N/A   Overcast
12:55 AM 17.6 °F 3.7 °F 17.6 °F 100% 29.90 in 10.0 mi North 13.8 mph 19.6 mph N/A   Overcast
1:15 AM 17.6 °F 3.2 °F 17.6 °F 100% 29.91 in 10.0 mi North 15.0 mph - N/A   Overcast
1:35 AM 17.6 °F 3.7 °F 17.6 °F 100% 29.90 in 10.0 mi North 13.8 mph 21.9 mph N/A   Overcast
1:55 AM 17.6 °F 2.7 °F 17.6 °F 100% 29.91 in 5.0 mi North 16.1 mph 20.7 mph N/A   Overcast
2:15 AM 15.8 °F -0.2 °F 15.8 °F 100% 29.92 in 5.0 mi North 17.3 mph - N/A   Overcast
2:35 AM 15.8 °F 2.7 °F 15.8 °F 100% 29.93 in 5.0 mi North 11.5 mph - N/A   Overcast
2:55 AM 15.8 °F 2.7 °F 15.8 °F 100% 29.94 in 5.0 mi North 11.5 mph - N/A Snow Light Snow
3:15 AM 15.8 °F 1.4 °F 15.8 °F 100% 29.94 in 5.0 mi North 13.8 mph 18.4 mph N/A Snow Light Snow
3:35 AM 15.8 °F 0.3 °F 15.8 °F 100% 29.94 in 5.0 mi North 16.1 mph - N/A Snow Light Snow
3:55 AM 15.8 °F 0.9 °F 15.8 °F 100% 29.94 in 4.0 mi North 15.0 mph 23.0 mph N/A Snow Light Snow
4:15 AM 15.8 °F 0.9 °F 15.8 °F 100% 29.94 in 3.0 mi North 15.0 mph - N/A Snow Light Snow
4:35 AM 15.8 °F 2.7 °F 15.8 °F 100% 29.94 in 4.0 mi North 11.5 mph 21.9 mph N/A Snow Light Snow
4:55 AM 15.8 °F 0.9 °F 15.8 °F 100% 29.93 in 4.0 mi North 15.0 mph 21.9 mph 0.01 in Snow Light Snow
5:15 AM 15.8 °F 0.9 °F 15.8 °F 100% 29.94 in 3.0 mi North 15.0 mph 23.0 mph N/A Snow Light Snow
5:35 AM 15.8 °F -0.2 °F 15.8 °F 100% 29.94 in 3.0 mi North 17.3 mph 23.0 mph N/A Snow Light Snow
5:55 AM 15.8 °F 0.9 °F 15.8 °F 100% 29.95 in 3.0 mi North 15.0 mph 24.2 mph 0.01 in Snow Light Snow
6:15 AM 15.8 °F 1.4 °F 15.8 °F 100% 29.96 in 3.0 mi North 13.8 mph - N/A Snow Light Snow
6:35 AM 14.0 °F -3.4 °F 14.0 °F 100% 29.96 in 3.0 mi North 19.6 mph 23.0 mph N/A Snow Light Snow
6:55 AM 14.0 °F -2.5 °F 14.0 °F 100% 29.97 in 2.5 mi North 17.3 mph 23.0 mph 0.01 in Snow Light Snow
7:15 AM 14.0 °F -1.4 °F 14.0 °F 100% 29.97 in 2.5 mi North 15.0 mph 18.4 mph N/A Snow Light Snow
7:35 AM 14.0 °F -2.5 °F 14.0 °F 100% 29.98 in 2.5 mi North 17.3 mph 23.0 mph 0.01 in Snow Light Snow
7:55 AM 12.2 °F -3.7 °F 12.2 °F 100% 29.98 in 2.0 mi North 15.0 mph 19.6 mph 0.01 in Snow Light Snow
8:15 AM 12.2 °F -4.8 °F 12.2 °F 100% 29.98 in 1.5 mi North 17.3 mph 23.0 mph N/A Snow Light Snow
8:35 AM 12.2 °F -3.7 °F 12.2 °F 100% 29.98 in 2.0 mi North 15.0 mph 20.7 mph 0.01 in Snow Light Snow
8:55 AM 12.2 °F -2.5 °F 12.2 °F 100% 30.00 in 2.0 mi North 12.7 mph 20.7 mph 0.02 in Snow Light Snow
9:15 AM 12.2 °F -2.5 °F 12.2 °F 100% 30.01 in 1.8 mi North 12.7 mph 19.6 mph N/A Snow Light Snow
9:35 AM 12.2 °F -1.8 °F 12.2 °F 100% 30.01 in 1.5 mi North 11.5 mph 20.7 mph 0.01 in Snow Light Snow
9:55 AM 12.2 °F -2.5 °F 12.2 °F 100% 30.01 in 1.2 mi North 12.7 mph 19.6 mph 0.01 in Snow Light Snow
10:15 AM 12.2 °F -4.8 °F 12.2 °F 100% 30.01 in 1.2 mi North 17.3 mph 23.0 mph N/A Snow Light Snow
10:35 AM 12.2 °F -3.7 °F 12.2 °F 100% 30.02 in 1.2 mi North 15.0 mph 19.6 mph 0.01 in Snow Light Snow
10:55 AM 12.2 °F -3.7 °F 12.2 °F 100% 30.02 in 1.2 mi North 15.0 mph 18.4 mph 0.02 in Snow Light Snow
11:15 AM 14.0 °F -1.4 °F 14.0 °F 100% 30.02 in 1.2 mi North 15.0 mph 23.0 mph 0.01 in Rain Light Freezing Rain
11:35 AM 14.0 °F -2.0 °F 14.0 °F 100% 30.01 in 1.5 mi North 16.1 mph 19.6 mph 0.02 in Snow Light Snow
11:55 AM 14.0 °F -1.4 °F 14.0 °F 100% 30.00 in 1.2 mi North 15.0 mph 24.2 mph 0.03 in Snow Light Snow
12:15 PM 14.0 °F -0.8 °F 14.0 °F 100% 30.00 in 2.0 mi North 13.8 mph 20.7 mph N/A Snow Light Snow
12:35 PM 14.0 °F -2.0 °F 14.0 °F 100% 30.01 in 2.0 mi North 16.1 mph - 0.02 in Rain Light Freezing Rain
12:55 PM 14.0 °F -2.5 °F 14.0 °F 100% 30.00 in 1.5 mi North 17.3 mph - 0.03 in Snow Light Snow
1:15 PM 14.0 °F -1.4 °F 14.0 °F 100% 30.00 in 1.8 mi North 15.0 mph 20.7 mph N/A Snow Light Snow
1:35 PM 14.0 °F -3.0 °F 14.0 °F 100% 29.99 in 1.8 mi North 18.4 mph 25.3 mph 0.01 in Snow Light Snow
1:55 PM 14.0 °F -1.4 °F 14.0 °F 100% 29.99 in 2.5 mi North 15.0 mph - 0.03 in Rain Light Freezing Rain
2:15 PM 14.0 °F -1.4 °F 14.0 °F 100% 29.98 in 2.5 mi North 15.0 mph 19.6 mph N/A Snow Light Snow
2:35 PM 14.0 °F -2.5 °F 14.0 °F 100% 29.99 in 3.0 mi North 17.3 mph - 0.02 in Rain Light Freezing Rain
2:55 PM 15.8 °F 1.4 °F 15.8 °F 100% 29.99 in 4.0 mi North 13.8 mph 21.9 mph 0.02 in Rain Light Freezing Rain
3:15 PM 15.8 °F 0.3 °F 15.8 °F 100% 30.00 in 3.0 mi North 16.1 mph 20.7 mph N/A Snow Light Snow
3:35 PM 15.8 °F -0.2 °F 15.8 °F 100% 30.01 in 2.5 mi North 17.3 mph - 0.01 in Rain Light Freezing Rain
3:55 PM 15.8 °F 0.9 °F 15.8 °F 100% 30.02 in 3.0 mi North 15.0 mph 20.7 mph 0.01 in   Mostly Cloudy
4:15 PM 15.8 °F 1.4 °F 15.8 °F 100% 30.02 in 3.0 mi North 13.8 mph 20.7 mph N/A Snow Light Snow
4:35 PM 15.8 °F 1.4 °F 15.8 °F 100% 30.01 in 1.0 mi North 13.8 mph 20.7 mph 0.05 in Snow Light Snow
4:55 PM 15.8 °F 0.9 °F 15.8 °F 100% 30.02 in 1.0 mi North 15.0 mph 21.9 mph 0.11 in Snow Light Snow
5:15 PM 15.8 °F 1.4 °F 15.8 °F 100% 30.01 in 2.0 mi North 13.8 mph 20.7 mph 0.03 in Snow Light Snow
5:35 PM 15.8 °F 1.4 °F 15.8 °F 100% 30.02 in 2.5 mi North 13.8 mph 20.7 mph 0.07 in Snow Light Snow
5:55 PM 15.8 °F 0.9 °F 15.8 °F 100% 30.02 in 4.0 mi North 15.0 mph 20.7 mph 0.10 in Snow Light Snow
6:15 PM 15.8 °F 1.4 °F 15.8 °F 100% 30.03 in 3.0 mi North 13.8 mph 24.2 mph 0.01 in Snow Light Snow
6:35 PM 15.8 °F 2.7 °F 15.8 °F 100% 30.04 in 5.0 mi North 11.5 mph 19.6 mph 0.02 in Snow Light Snow
6:55 PM 15.8 °F 2.7 °F 15.8 °F 100% 30.04 in 5.0 mi North 11.5 mph - 0.02 in Snow Light Snow
7:15 PM 15.8 °F 2.1 °F 15.8 °F 100% 30.03 in 4.0 mi North 12.7 mph 19.6 mph N/A Snow Light Snow
7:35 PM 15.8 °F 1.4 °F 15.8 °F 100% 30.03 in 4.0 mi North 13.8 mph - 0.01 in Snow Light Snow
7:55 PM 15.8 °F 1.4 °F 15.8 °F 100% 30.03 in 3.0 mi North 13.8 mph 20.7 mph 0.02 in Snow Light Snow
8:15 PM 15.8 °F 1.4 °F 15.8 °F 100% 30.04 in 3.0 mi North 13.8 mph - N/A Snow Light Snow
8:35 PM 14.0 °F -0.2 °F 14.0 °F 100% 30.04 in 2.5 mi North 12.7 mph - 0.01 in Snow Light Snow
8:55 PM 14.0 °F -0.2 °F 14.0 °F 100% 30.03 in 4.0 mi North 12.7 mph 20.7 mph 0.02 in Snow Light Snow
9:15 PM 14.0 °F -0.8 °F 14.0 °F 100% 30.03 in 4.0 mi North 13.8 mph - N/A Snow Light Snow
9:35 PM 14.0 °F -1.4 °F 14.0 °F 100% 30.03 in 4.0 mi North 15.0 mph 19.6 mph N/A Snow Light Snow
9:55 PM 14.0 °F -0.2 °F 14.0 °F 100% 30.03 in 4.0 mi North 12.7 mph 19.6 mph 0.01 in Snow Light Snow
10:15 PM 14.0 °F -0.8 °F 14.0 °F 100% 30.02 in 3.0 mi North 13.8 mph - N/A Snow Light Snow
10:35 PM 14.0 °F -1.4 °F 14.0 °F 100% 30.03 in 3.0 mi North 15.0 mph 19.6 mph 0.01 in Snow Light Snow
10:55 PM 14.0 °F -1.4 °F 14.0 °F 100% 30.03 in 4.0 mi North 15.0 mph 20.7 mph 0.01 in Snow Light Snow
11:15 PM 14.0 °F -0.2 °F 14.0 °F 100% 30.03 in 5.0 mi North 12.7 mph 20.7 mph N/A Snow Light Snow
11:35 PM 14.0 °F -0.2 °F 14.0 °F 100% 30.02 in 5.0 mi North 12.7 mph 20.7 mph 0.01 in Snow Light Snow
11:55 PM 14.0 °F -0.2 °F 14.0 °F 100% 30.02 in 5.0 mi North 12.7 mph 19.6 mph 0.01 in   Mostly Cloudy